Location: Newark
(54.6833°N, 25.2833°E)
Time: 18:57:07
(UTC+00:00)

Altair - Pass Details

Date: 13 November 2019
Orbit: 1502 x 1682 km, 47.2° (Epoch: 07 December)

Event Time Altitude Azimuth Distance (km) Brightness Sun altitude
Rises 06:35:04 0° 267° (W) 4,648 9.6 5.0°
Reaches altitude 10° 06:38:09 10° 263° (W) 3,677 9.1 5.4°
Maximum altitude 06:47:01 53° 190° (S) 1,842 8.4 6.3°
Drops below altitude 10° 06:56:10 10° 118° (ESE) 3,791 11.3 7.3°
Sets 06:59:24 0° 114° (ESE) 4,800 11.5 7.6°
